Regional Weather Roundup
Issued by NWS Upton, NY

Current Version | Previous Version | Text Only | Print | Product List | Glossary On
Versions: 1 2 3 4 5 6 7 8 9 10 11 12 13 14 15 16 17 18 19 20 21 22 23 24 25 26 27 28 29 30 31 32 33 34 35 36 37 38 39 40 41 42 43 44 45 46 47 48 49 50
892
ASUS41 KOKX 200805
RWROKX

Regional Weather Roundup
National Weather Service New York NY
300 AM EST TUE FEB 20 2018

Note: "FAIR" indicates few or no clouds below 12,000 feet with no
significant weather and/or obstructions to visibility.

NYZ071-072-176-178-NJZ106-104-200900-
New York City Metro Area

CITY           SKY/WX    TMP DP  RH WIND       PRES   REMARKS
Central Park   CLOUDY    50  49  96 VRB5      30.31F FOG
Bronx Bot Gard   N/A     48  48 100 SW13      30.29F
Bronx Lehman C   N/A     48  48 100 SW7         N/A
LaGuardia Arpt CLOUDY    51  49  92 SW9       30.29F FOG
Queens College   N/A     50  50 100 W12         N/A
Kennedy Intl   FOG       45  45 100 S3        30.31F VSB 1/4
Breezy Point     N/A     43 N/A N/A MISG        N/A
Brooklyn Coll    N/A     48  48 100 SW8         N/A
Staten Island    N/A     48  48 100 W6          N/A
Newark/Liberty FOG       47  47 100 SW8       30.30S VSB 1/4
Teterboro      DRZL/FOG  46  46 100 CALM      30.29S VSB 1/8
$$

NYZ177-179-078>081-200900-
Long Island New York

CITY           SKY/WX    TMP DP  RH WIND       PRES   REMARKS
Jones Beach      N/A     41 N/A N/A SW2         N/A
Wantagh          N/A     43  43 100 SW5         N/A
Hempstead      NOT AVBL
Matinecock Pt    N/A     48 N/A N/A SW10        N/A
Farmingdale    FOG       45  45 100 SW7       30.30F VSB 1/2
MacArthur/ISP  FOG       46  46 100 SW9       30.30S VSB 3/4
Shirley        FOG       48  48 100 SW10      30.31S VSB 3/4
Mt Sinai Harb    N/A    N/A N/A N/A S7          N/A
Westhampton    CLOUDY    48  47  96 SW12G21   30.32S FOG
East Hampton   FOG       48  48  98 SW12G17   30.30S VSB 1
Southold         N/A     50  48  93 SW7         N/A
Montauk          N/A     50  50 100 SW10G22   30.31S
$$

NYZ052-065-067-200900-
Hudson Valley

CITY           SKY/WX    TMP DP  RH WIND       PRES   REMARKS
White Plains   FOG       45  45 100 SW3       30.28S VSB 1/4
Larchmont Harb   N/A     43 N/A N/A SW2         N/A
Croton On Huds   N/A     41 N/A N/A MISG        N/A
Somers           N/A     43  43 100 SW3         N/A
Brewster         N/A     39  39 100 CALM        N/A
Newburgh       FOG       39  39 100 CALM      30.29S VSB 1/2
Montgomery     FOG       36  35  96 CALM      30.26F VSB 1/4
Otisville        N/A     41  41 100 W5          N/A
Warwick          N/A     39  39 100 E2          N/A
Suffern          N/A     43  43 100 S2          N/A
Poughkeepsie   FOG       40  39  97 SE3       30.27F VSB 1/2
Albany         CLOUDY    44  41  89 S10       30.22S
$$

NJZ001-105-106-008-010-013-015-019>022-104-200900-
New Jersey

CITY           SKY/WX    TMP DP  RH WIND       PRES   REMARKS
Newark/Liberty FOG       47  47 100 SW8       30.30S VSB 1/4
Teterboro      DRZL/FOG  46  46 100 CALM      30.29S VSB 1/8
Caldwell       CLOUDY    44  44 100 SW5       30.30S FOG
Somerville     FOG       39  39 100 CALM      30.30R VSB 3/4
Linden         CLOUDY    47  47  99 CALM      30.30F FOG
Perth Amboy      N/A     45 N/A N/A W8          N/A
Sussex         FOG       41  41 100 SW8       30.27F VSB 1/2
Andover          N/A     40  40 100 S3        30.28F
Trenton        CLOUDY    51  50  96 SW8       30.30F FOG
Millville      CLOUDY    52  51  97 VRB3      30.33F FOG
Atlantic City  CLOUDY    52  52 100 SW6       30.33F
Wrightstown    CLOUDY    54  53  96 SW13      30.28
Toms River     CLOUDY    53  53 100 SW9       30.32F FOG
Belmar         CLOUDY    54  54 100 SW9       30.31S
$$

PAZ047>061-062-071-200900-
Eastern Pennsylvania

CITY           SKY/WX    TMP DP  RH WIND       PRES   REMARKS
Philadelphia   FOG       47  47 100 SW5       30.33F VSB 1/4
Allentown      FOG       39  36  89 CALM      30.30F VSB 1/4
Scranton       CLOUDY    42  42 100 CALM      30.24F FOG
$$

CTZ002-004>006-009-010-012-RIZ004-006-007-MAZ004-011-015-200900-
Southern New England

 In CT

CITY           SKY/WX    TMP DP  RH WIND       PRES   REMARKS
Bradley Intl   FOG       45  45 100 S8        30.26S VSB 1/4
Hartford       CLOUDY    49  48  97 S6        30.28S FOG
Danbury        CLOUDY   N/A N/A N/A W5        30.28F FOG
Wtrbury/Oxford LGT RAIN  44  44 100 SW5       30.27F VSB 1/4
Norwalk Harbor   N/A     39 N/A N/A SW3         N/A
Bridgeport     FOG       43  42  97 W3        30.29S VSB 1/4
Meriden        FOG       45  45 100 S6        30.28F VSB 1/2
New Haven      FOG       45  44  97 SW3       30.29S VSB 1/4
Chester        FOG       48  48 100 SW9G15    30.28S VSB<1/4
Groton         FOG       48  47  96 SW7       30.29S VSB 1/2
Willimantic    CLOUDY    51  50  96 S3        30.28F FOG

 In RI

CITY           SKY/WX    TMP DP  RH WIND       PRES   REMARKS
Providence     CLOUDY    52  51  97 SW15G22   30.28S
Block Island   LGT RAIN  47  47 100 SW14      30.31S VSB 1/2
Westerly       NOT AVBL

In MA

CITY           SKY/WX    TMP DP  RH WIND       PRES   REMARKS
Boston         CLOUDY    53  51  93 SW14      30.23S
Worcester      CLOUDY    49  48  97 SW16      30.23S
Westfield      CLOUDY    45  45 100 S7        30.24F
Provincetown   CLOUDY    45  44  97 SW13      30.28S FOG
Nantucket      CLOUDY    48  48 100 SW17      30.31F
$$

ANZ330-335-338-340-345-350-353-355-200900-
Coastal Marine Observations


STATION/POSITION TIME  SKY/WX   TEMP    WIND        PRES    VSBY  WAVE
                                AIR SEA DIR/SP/G                  HT/PER
                 (UTC)          (F)     (DEG/KT/KT) (MB)    (MI)  (FT/S)
NY Harb Entrance 0750            43 40  200/ 10/ 12 1025.7          4/11
20 S Fire Island 0750            45 42  220/ 12/ 14 1026.6          4/ 5
15 E Barnegat Li 0730               41                N/A           4/12
Hudson Canyon    0750            51 46  210/ 16/ 17 1027.5          5/11
Kings Point      0748               37  270/ 11/ 15 1026.7
Execution Rocks  NOT AVBL
Western LI Sound NOT AVBL
Central LI Sound 0653            43     220/ 10/ 12   N/A           1
Robbins Reef     0742            47     260/  9/ 12 1026.6
$$


>>>>>>>>>>>>>>>>>>>>>>>>>>>> KEY <<<<<<<<<<<<<<<<<<<<<<<<<<<
>                                                          <
>     SKY/WX - Sky Condition/Present Weather               <
>     TMP    - Temperature in Fahrenheit                   <
>     DP     - Dew Point in Fahrenheit                     <
>     RH     - Relative Humidity in Percent                <
>     WIND   - Direction (from) and Speed in MPH           <
>     PRES   - Mean Sea Level Pressure (inches of Hg)      <
>     WCI    - Wind Chill Index                            <
>     VSB    - Visibility in Miles                         <
>     HX     - Heat Index                                  <
>     TC     - Temperature in Celsius                      <
>     VRB    - Varibale Wind Direction                     <
>                                                          <
>>>>>>>>>>>>>>>>>>>>>>>>>>>> KEY <<<<<<<<<<<<<<<<<<<<<<<<<<<




USA.gov is the U.S. government's official web portal to all federal, state and local government web resources and services.